NAKANO
         **** Don't distribute anyone except personal use only ****
           (C) Copyright 2009 Orbit.Astro.Assoc./ComputingSection
write mail from CFAD0::NAKANO on 2009-09-05 06:52:50(JST).


    C/2008 P1 (Garradd)
Epoch 2009 July 28.0 TT = JDT 2455040.5  
T 2009 July 22.91862 TT                                 Nakano
q   3.8962288            (2000.0)            P               Q
z  -0.0004478      Peri.   11.85835     +0.98146531     -0.18812675
 +/-0.0000101      Node   357.67697     -0.02838626     +0.04578334
e   1.0017446      Incl.   64.30841     +0.18952588     +0.98107707
From 144 observations 2008 Aug. 13-Dec. 13, mean residual 0".54.
   (1/a)org.= +0.000144, (1/a)fut.= +0.000235 (+/-0.000010), Q= 6.
NAKANO
         **** Don't distribute anyone except personal use only ****
                (C) Copyright 2008 OAA/ComputingSection
write mail from CFAD0::NAKANO on 2008-12-18 03:31:25(JST).
 

◎C/2008 P1の軌道と予報位置



 すでにComeatry Orbit in Octoberでお知らせしたとおり,守山の井狩康一氏は,

南西の低空を動く,この彗星の観測に10月18日と21日に成功しました.氏の核光度

は,それぞれ,15.5等と16.0等でした.北半球での観測は,10月10日にカナリー

諸島(北緯+28゚)で行なわれた観測に次ぐものです.彗星は,12月には,少し観測

しやすくなるでしょう.



    C/2008 P1 (Garradd)

Epoch 2009 July 28.0 TT = JDT 2455040.5  

T 2009 July 22.91616 TT                                 Nakano

q   3.8963655            (2000.0)            P               Q

z  -0.0004340      Peri.   11.85580     +0.98147401     -0.18808000

 +/-0.0000285      Node   357.67653     -0.02839709     +0.04577459

e   1.0016911      Incl.   64.30892     +0.18947922     +0.98108644

From 110 observations 2008 Aug. 13-Nov. 5, mean residual 0".50.

   (1/a)org.= +0.000158, (1/a)fut.= +0.000249 (+/-0.000029), Q= 5.


C/2008 P1 (Garradd)                    Orbit by S. Nakano     unpublished  (2008) 

Last obs. 2008 11 05 (423)



2008/2009    α  (2000) δ      △      r       Daily motion  Elong. Phase    m1   天文薄明終了時

  0h TT     h  m       。  ,        AU      AU      ,     。     。      。      等     h。    A 。 

Nov. 20   22 53.06  -36 01.5    4.294   4.430    13.9/352    91.4   12.9   16.0   +18.0  352.7

     21   22 52.90  -35 47.8    4.304   4.426    13.9/353    90.6   12.9   16.0   +18.3  353.4

     22   22 52.75  -35 34.0    4.315   4.422    13.9/354    89.7   12.9   16.0   +18.7  354.2

     23   22 52.62  -35 20.2    4.325   4.418    13.9/355    88.9   12.9   16.0   +19.0  355.0

     24   22 52.52  -35 06.3    4.336   4.414    13.9/356    88.1   12.9   16.0   +19.2  355.8

     25   22 52.43  -34 52.4    4.346   4.410    13.9/356    87.2   12.9   16.0   +19.5  356.6

     26   22 52.36  -34 38.5    4.357   4.406    14.0/357    86.4   12.9   16.0   +19.8  357.4

     27   22 52.31  -34 24.6    4.367   4.402    14.0/358    85.5   12.9   16.0   +20.1  358.2

     28   22 52.27  -34 10.6    4.378   4.398    14.0/359    84.7   12.9   16.0   +20.3  359.1

     29   22 52.26  -33 56.6    4.388   4.394    14.0/  0    83.9   12.9   16.0   +20.6  359.9

     30   22 52.26  -33 42.6    4.399   4.390    14.0/  1    83.0   12.9   16.0   +20.8    0.8

Dec.  1   22 52.28  -33 28.6    4.410   4.386    14.0/  2    82.2   12.9   16.0   +21.0    1.7

      2   22 52.31  -33 14.6    4.420   4.382    14.1/  3    81.4   12.9   16.0   +21.2    2.5

      3   22 52.37  -33 00.5    4.431   4.379    14.1/  4    80.5   12.8   16.0   +21.4    3.4

      4   22 52.44  -32 46.4    4.442   4.375    14.1/  4    79.7   12.8   16.0   +21.6    4.3

      5   22 52.52  -32 32.4    4.453   4.371    14.1/  5    78.9   12.8   16.0   +21.7    5.2

      6   22 52.62  -32 18.3    4.463   4.367    14.2/  6    78.0   12.8   16.0   +21.9    6.2

      7   22 52.74  -32 04.2    4.474   4.363    14.2/  7    77.2   12.7   16.1   +22.0    7.1

      8   22 52.88  -31 50.1    4.485   4.359    14.2/  8    76.4   12.7   16.1   +22.2    8.0

      9   22 53.03  -31 36.0    4.495   4.356    14.3/  8    75.6   12.6   16.1   +22.3    9.0

     10   22 53.19  -31 21.9    4.506   4.352    14.3/  9    74.7   12.6   16.1   +22.4    9.9

     11   22 53.37  -31 07.8    4.517   4.348    14.3/ 10    73.9   12.6   16.1   +22.5   10.9

     12   22 53.56  -30 53.7    4.527   4.344    14.4/ 11    73.1   12.5   16.1   +22.5   11.8

     13   22 53.77  -30 39.6    4.538   4.341    14.4/ 11    72.3   12.5   16.1   +22.6   12.8

     14   22 53.99  -30 25.5    4.549   4.337    14.4/ 12    71.4   12.4   16.1   +22.6   13.8

     15   22 54.22  -30 11.4    4.559   4.333    14.5/ 13    70.6   12.4   16.1   +22.7   14.7

     16   22 54.47  -29 57.3    4.570   4.329    14.5/ 14    69.8   12.3   16.1   +22.7   15.7

     17   22 54.73  -29 43.2    4.580   4.326    14.5/ 14    69.0   12.3   16.1   +22.7   16.7

     18   22 55.01  -29 29.1    4.591   4.322    14.6/ 15    68.1   12.2   16.1   +22.6   17.7

     19   22 55.30  -29 15.0    4.601   4.318    14.6/ 16    67.3   12.1   16.1   +22.6   18.7

     20   22 55.60  -29 00.9    4.611   4.315    14.7/ 16    66.5   12.1   16.1   +22.6   19.7

     21   22 55.91  -28 46.9    4.622   4.311    14.7/ 17    65.7   12.0   16.1   +22.5   20.7

     22   22 56.24  -28 32.8    4.632   4.307    14.7/ 18    64.9   11.9   16.1   +22.4   21.7

     23   22 56.57  -28 18.7    4.642   4.304    14.8/ 18    64.1   11.9   16.1   +22.3   22.7

     24   22 56.92  -28 04.7    4.652   4.300    14.8/ 19    63.3   11.8   16.1   +22.2   23.7

     25   22 57.28  -27 50.7    4.662   4.297    14.9/ 19    62.4   11.7   16.1   +22.1   24.8

     26   22 57.66  -27 36.6    4.672   4.293    14.9/ 20    61.6   11.6   16.1   +21.9   25.8

     27   22 58.04  -27 22.6    4.682   4.289    15.0/ 21    60.8   11.5   16.1   +21.8   26.8

     28   22 58.43  -27 08.6    4.692   4.286    15.0/ 21    60.0   11.5   16.1   +21.6   27.8

     29   22 58.84  -26 54.6    4.702   4.282    15.0/ 22    59.2   11.4   16.1   +21.4   28.8

     30   22 59.26  -26 40.7    4.711   4.279    15.1/ 22    58.4   11.3   16.1   +21.2   29.8

     31   22 59.68  -26 26.7    4.721   4.275    15.1/ 23    57.6   11.2   16.1   +20.9   30.8

Jan.  1   23 00.12  -26 12.8    4.730   4.272    15.2/ 23    56.8   11.1   16.1   +20.7   31.8

                    m1 =  8.0 + 5 log △ +  7.5 log r

NAKANO

         **** Don't distribute anyone except personal use only ****

                (C) Copyright 2008 OAA/ComputingSection

write mail from CFAD0::NAKANO on 2008-11-23 06:27:55(JST).

 

    C/2008 P1 (Garradd)

Epoch 2009 July 28.0 TT = JDT 2455040.5  

T 2009 July 22.91799 TT                                 Nakano

q   3.8960841            (2000.0)            P               Q

z  -0.0004642      Peri.   11.86071     +0.98145722     -0.18817065

 +/-0.0000437      Node   357.67751     -0.02837376     +0.04579367

e   1.0018087      Incl.   64.30778     +0.18956968     +0.98106817

From 105 observations 2008 Aug. 13-Oct. 21, mean residual 0".50.

   (1/a)org.= +0.000128, (1/a)fut.= +0.000218 (+/-0.000044), Q= 5.





NAKANO

         **** Don't distribute anyone except personal use only ****

                (C) Copyright 2008 OAA/ComputingSection

write mail from CFAD0::NAKANO on 2008-11-05 05:02:23(JST).

 

    C/2008 P1 (Garradd)

T 2009 July 22.74312 TT                                 Nakano

q   3.8983096            (2000.0)            P               Q

                   Peri.   11.78343     +0.98170198     -0.18693321

                   Node   357.69125     -0.02812043     +0.04618915

e   1.0            Incl.   64.27994     +0.18833605     +0.98128616

From 79 observations 2008 Aug. 13-Sept. 26.



NAKANO

         **** Don't distribute anyone except personal use only ****

                (C) Copyright 2008 OAA/ComputingSection

write mail from CFAD0::NAKANO on 2008-10-05 06:57:03(JST).





    C/2008 P1 (Garradd)

T 2009 July 22.42543 TT                                 Nakano

q   3.8921803            (2000.0)            P               Q

                   Peri.   11.81999     +0.98154047     -0.18795974

                   Node   357.75006     -0.02690747     +0.04726808

e   1.0            Incl.   64.20737     +0.18935232     +0.98103867

From 44 observations 2008 Aug. 13-31.

NAKANO

         **** Don't distribute anyone except personal use only ****

                (C) Copyright 2008 OAA/ComputingSection

write mail from CFAD0::NAKANO on 2008-09-07 23:13:57(JST).





戻ります。